Location: Stull Observatory
(42.2506°N, 77.7903°W)
Time: 01:54:32
(UTC-04:00)

Daily predictions for brighter satellites

Satellite Brightness Start Highest point End
(mag) Time Altitude Azimuth Time Altitude Azimuth Time Altitude Azimuth
Cosmos 1953 3.8 00:03:07 10° NNW 00:06:33 28° W 00:06:37 28° W
Cosmos 1340 3.4 00:08:08 51° NNE 00:08:08 51° NNE 00:11:04 10° NNE
Nadezhda 4 Rocket 4.5 00:08:39 34° SW 00:11:12 55° WNW 00:17:25 10° N
COSMOS 2406 3.5 00:09:27 39° SW 00:11:30 66° WNW 00:17:14 10° NNE
Cosmos 2208 Rocket 4.2 00:07:56 10° NNW 00:13:00 57° WSW 00:13:24 55° SW
CZ-4B R/B 3.0 00:17:28 34° NE 00:17:28 34° NE 00:20:08 10° N
S3M 4.5 00:11:19 10° N 00:17:20 47° ENE 00:18:39 41° ESE
USA 238 DEB 4.0 00:13:44 22° SW 00:18:37 70° NW 00:25:41 10° NNE
USA 238 3.9 00:13:55 22° SW 00:18:42 70° NW 00:25:47 10° NNE
Terra 3.8 00:22:47 17° WSW 00:23:39 18° W 00:26:51 10° NW
Cosmos 1655 Rocket 3.9 00:22:31 59° SSE 00:23:41 75° E 00:29:58 10° N
CZ-4C R/B 2.4 00:26:51 52° ESE 00:26:51 52° ESE 00:32:12 10° NE
Lacrosse 5 4.2 00:24:41 10° NNW 00:28:30 21° NNE 00:32:18 10° ENE
Cosmos 2082 Rocket 3.7 00:32:38 21° E 00:32:38 21° E 00:36:20 10° NE
Cosmos 1766 Rocket 4.0 00:34:24 55° ENE 00:34:24 55° ENE 00:38:16 10° NNE
Cosmos 1707 3.6 00:35:25 49° NW 00:35:25 49° NW 00:38:37 10° N
H-2A R/B 4.2 00:38:18 12° WSW 00:39:29 12° W 00:41:35 10° WNW
Landsat 5 4.0 00:40:51 53° NNE 00:40:51 53° NNE 00:44:06 10° N
H-2A R/B 3.0 00:36:30 10° NNE 00:39:24 50° N 00:39:24 50° N
Cosmos 1833 Rocket 4.4 00:41:56 20° E 00:41:56 20° E 00:45:29 10° NE
NOSS 3-3 (A) 4.5 00:36:59 10° NW 00:44:26 79° NE 00:47:25 42° SE
NOSS 3-3 (C) 4.5 00:37:06 10° NW 00:44:33 78° NE 00:47:34 42° SE
Cosmos 2221 3.0 00:41:10 10° NNW 00:44:51 54° WNW 00:44:51 54° WNW
Cosmos 1076 Rocket 3.8 00:46:11 62° N 00:46:11 62° N 00:49:46 10° N
Cosmos 1943 Rocket 3.8 00:42:03 10° NW 00:46:00 20° W 00:46:20 20° WSW
Meteor 1-24 Rocket 3.8 00:48:55 66° SSW 00:49:49 84° W 00:55:48 10° N
CENTAUR R/B 4.2 00:50:30 17° ESE 00:50:30 17° ESE 00:54:09 10° ENE
Cosmos 2026 Rocket 4.1 00:49:48 53° SW 00:51:01 65° W 00:57:03 10° N
Cosmos 841 Rocket 4.5 00:47:25 10° N 00:52:20 39° ENE 00:53:26 35° E
NOSS 3-2 (C) 3.3 00:51:59 65° S 00:52:48 75° ESE 00:59:28 10° NE
Cosmos 1689 Rocket 4.5 00:57:02 25° NNW 00:57:02 25° NNW 00:58:33 10° NNW
Cosmos 1515 Rocket 4.5 00:51:47 10° N 00:55:46 41° ENE 00:55:46 41° ENE
Cosmos 2228 Rocket 3.3 00:54:24 10° N 00:58:16 65° NNE 00:58:16 65° NNE
Cosmos 1378 4.3 01:10:18 42° NNW 01:10:18 42° NNW 01:13:00 10° N
Cosmos 468 Rocket 4.2 01:08:20 10° NNW 01:13:20 59° W 01:13:20 59° W
CZ-2C R/B 2.8 01:10:20 10° NNE 01:15:49 58° E 01:16:07 57° ESE
Cosmos 2344 3.7 01:17:27 50° S 01:19:25 65° ESE 01:27:58 10° NE
Cosmos 1814 Rocket 4.2 01:14:41 10° NNW 01:19:44 60° W 01:19:44 60° W
ALOS 2 3.9 01:23:39 30° WNW 01:23:39 30° WNW 01:26:47 10° NNW
Meteor 1-21 Rocket 4.1 01:24:23 69° SSE 01:24:57 77° E 01:30:39 10° NNE
Cosmos 883 Rocket 4.5 01:18:53 10° N 01:25:16 80° E 01:26:30 60° SSE
In-Cosmos 22 4.0 01:26:40 76° S 01:27:08 88° E 01:32:50 10° N
ISS -0.1 01:28:35 10° NW 01:30:42 16° N 01:32:47 10° NE
Cosmos 2369 3.6 01:27:15 10° NNW 01:32:52 67° WSW 01:33:02 66° WSW
Cosmos 724 4.2 01:32:42 62° SE 01:32:59 63° ESE 01:38:47 10° NE
Meteor 2-2 Rocket 4.2 01:28:02 10° N 01:33:47 81° E 01:34:36 66° SSE
Cosmos 1486 Rocket 4.3 01:34:01 53° W 01:34:33 55° WNW 01:39:41 10° NNE
NOSS 3-2 (A) 4.2 01:34:42 30° WSW 01:37:30 50° NW 01:44:04 10° NNE
Genesis I 4.1 01:35:38 10° NNW 01:38:44 49° N 01:38:44 49° N
Cosmos 1818 3.9 01:35:05 10° NW 01:39:56 52° W 01:39:56 52° W
Meteor 2-20 Rocket 4.3 01:44:18 63° SSW 01:45:23 82° W 01:51:35 10° N
Helios 1A Rocket 4.5 01:46:01 10° N 01:49:20 27° WNW 01:49:20 27° WNW
CZ-4B R/B 4.4 01:51:14 11° WNW 01:51:14 11° WNW 01:51:36 10° WNW
Cosmos 2058 4.1 01:50:53 35° E 01:50:53 35° E 01:54:27 10° NNE
Lacrosse 5 rocket 4.0 01:49:08 10° NNW 01:52:27 21° NNE 01:55:51 10° ENE
Cosmos 1151 Rocket 3.2 01:49:35 10° N 01:53:18 65° NNW 01:53:18 65° NNW
Cosmos 2315 Rocket 3.9 01:48:26 10° N 01:54:49 86° W 01:56:09 59° S
Cosmos 1763 Rocket 3.7 01:49:38 10° NNW 01:54:40 54° W 01:54:40 54° W
Cosmos 1908 4.1 01:51:12 10° N 01:54:03 47° NNW 01:54:03 47° NNW
Cosmos 2278 4.5 01:50:20 10° NW 01:55:09 37° W 01:55:09 37° W
Cosmos 1980 Rocket 2.9 01:50:42 10° NNW 01:56:09 48° ENE 01:58:50 28° ESE
Cosmos 2151 3.2 01:57:57 68° NE 01:57:57 68° NE 02:01:49 10° NNE
Cosmos 540 Rocket 4.0 01:53:53 10° NNW 01:58:59 55° ENE 02:00:22 42° ESE
Cosmos 2266 Rocket 4.5 02:02:30 42° WSW 02:04:00 50° WNW 02:10:15 10° N
USA 215 3.8 01:59:01 10° ENE 02:05:06 39° SE 02:05:58 38° SSE
ERS-2 4.2 02:05:30 10° NE 02:08:05 20° E 02:08:05 20° E
Cosmos 1437 Rocket 3.4 02:05:55 10° NNW 02:08:56 49° NW 02:08:56 49° NW
Cosmos 1300 3.6 02:06:17 10° N 02:09:48 44° ENE 02:09:48 44° ENE
Lacrosse 5 2.1 02:07:14 10° NW 02:12:17 67° NE 02:14:59 27° ESE
Cosmos 1441 Rocket 4.0 02:13:08 47° NW 02:13:08 47° NW 02:16:26 10° N
CZ-4C R/B 3.8 02:12:00 17° W 02:15:19 30° NW 02:20:43 10° NNE
Cosmos 1867 4.4 02:13:52 33° W 02:15:37 43° NW 02:20:51 10° NNE
Cosmos 2082 Rocket 2.6 02:14:28 45° WSW 02:15:45 54° WNW 02:21:20 10° NNE
Cosmos 1697 Rocket 2.6 02:11:05 10° NNW 02:16:46 74° WSW 02:17:38 62° S
Sich 1 3.7 02:16:31 45° ESE 02:16:50 46° E 02:21:04 10° NNE
Cosmos 1833 Rocket 2.9 02:23:37 47° WSW 02:24:54 59° WNW 02:30:30 10° NNE
USA 32 4.0 02:21:40 10° N 02:26:52 63° W 02:27:30 58° SW
Cosmos 1437 3.8 02:29:10 46° NNE 02:29:10 46° NNE 02:31:42 10° NNE
CZ-2C R/B 3.6 02:30:16 43° WSW 02:30:44 44° W 02:36:10 10° NNW
Cosmos 371 Rocket 4.0 02:26:45 10° N 02:31:29 50° ENE 02:33:43 28° SE
BREEZE-M DEB (TANK) 4.3 02:25:03 10° WNW 02:32:41 36° N 02:35:37 10° ENE
ATLAS 5 CENTAUR R/B 4.0 02:32:26 12° ESE 02:33:37 13° ESE 02:35:57 10° E
BREEZE-M TANK 2.8 02:24:25 10° WSW 02:34:00 89° N 02:37:00 10° ENE
PSLV R/B 3.5 02:30:59 10° NNE 02:35:38 85° ESE 02:36:05 71° S
Abrixas 4.1 02:36:46 35° N 02:36:46 35° N 02:39:12 10° NE
Cosmos 1455 4.3 02:34:11 10° NNE 02:37:11 22° ENE 02:38:55 16° ESE
CENTAUR R/B 2.5 02:37:39 45° SW 02:39:45 83° NW 02:46:41 10° NE
Cosmos 1726 2.2 02:36:14 10° N 02:39:41 73° NNE 02:39:41 73° NNE
Cosmos 968 Rocket 3.8 02:39:19 45° SSE 02:40:27 56° ESE 02:45:30 10° NNE
Cosmos 1674 4.4 02:41:22 23° WNW 02:41:22 23° WNW 02:43:58 10° NNW
Cosmos 2360 4.3 02:35:35 10° NNW 02:41:19 77° ENE 02:44:22 29° SSE
Landsat 4 3.9 02:43:40 60° NW 02:43:40 60° NW 02:46:56 10° NNW
JB-3 4.1 02:44:33 10° NNE 02:48:35 90° SSE 02:48:45 82° SSW
Aureole 1 Rocket 3.9 02:44:57 10° NW 02:49:29 45° WSW 02:49:58 44° WSW
Meteor 1-27 4.3 02:44:53 10° NNW 02:50:42 67° W 02:52:25 45° SSW
IRS-P3 4.1 02:47:51 10° NNE 02:53:13 78° ESE 02:54:57 44° S
Resurs 1-4 Rocket 4.4 02:50:14 10° NE 02:53:32 16° E 02:56:49 10° SE
CZ-2C R/B 4.4 02:51:34 10° NNW 02:55:36 21° WNW 02:57:38 17° W
AQUA 4.2 02:51:49 10° NNE 02:56:31 57° E 02:58:02 39° SSE
SL-16 R/B 2.8 02:52:16 10° NNW 02:57:52 57° ENE 03:03:26 10° SE
SL-14 R/B 3.3 02:59:09 58° W 02:59:10 58° W 03:02:58 10° N
Cosmos 1626 3.3 02:59:56 30° SE 03:00:51 35° E 03:04:19 10° NNE
Cosmos 1538 Rocket 3.9 02:55:42 10° NNW 03:00:57 85° WSW 03:03:11 36° SSE
ASTEX 1 4.4 02:58:27 10° NNW 03:02:47 31° WNW 03:03:43 29° W
Cosmos 2242 Rocket 3.6 03:01:08 10° NNW 03:05:30 59° W 03:06:03 54° SW
ISS -1.3 03:04:57 10° NW 03:07:53 30° NNE 03:10:49 10° E
Cosmos 2322 Rocket 2.3 03:04:37 10° NNW 03:10:17 77° ENE 03:15:23 13° SSE
Cosmos 1703 3.2 03:11:01 62° SW 03:11:34 74° W 03:15:33 10° N
Cosmos 2181 Rocket 4.4 03:05:38 10° N 03:11:43 60° E 03:17:05 14° SSE
OAO 3 Rocket 4.0 03:13:19 31° SSE 03:13:19 31° SSE 03:16:46 10° ESE
Cosmos 1633 Rocket 3.6 03:13:21 39° WSW 03:14:04 42° WNW 03:18:18 10° N
Cosmos 1777 Rocket 4.1 03:14:31 36° S 03:16:40 74° ESE 03:21:58 10° NNE
Cosmos 332 Rocket 4.4 03:15:51 10° NW 03:20:13 35° WSW 03:20:35 35° WSW
Cosmos 1271 Rocket 2.5 03:17:35 10° N 03:21:24 85° W 03:22:17 51° S
Cosmos 773 Rocket 3.9 03:16:42 10° NNW 03:21:52 84° ENE 03:25:50 17° SSE
CBERS-1 3.9 03:18:30 10° N 03:23:38 80° WNW 03:25:50 35° SSW
SAR-Lupe-3 4.4 03:23:38 54° S 03:24:21 82° WSW 03:27:56 10° NNW
SL-08 R/B 3.5 03:27:43 36° SSW 03:29:22 54° W 03:34:12 10° NNW
Cosmos 2292 Rocket 3.3 03:29:25 40° SE 03:30:14 55° E 03:33:41 10° NNE
ARIANE 5 R/B 3.2 03:27:03 10° NNE 03:32:01 49° E 03:35:28 19° SSE
Lacrosse 5 rocket 1.4 03:27:50 10° NW 03:32:14 90° WSW 03:36:48 10° SE
Cosmos 1470 Rocket 3.8 03:31:57 38° SW 03:33:20 54° W 03:37:42 10° N
IRS-1D 4.4 03:28:46 10° NNE 03:33:56 47° E 03:37:56 16° SSE
ADEOS 3.5 03:30:35 10° NNE 03:35:51 87° WNW 03:38:40 28° SSW
Cosmos 1933 Rocket 3.9 03:36:33 36° SW 03:37:57 50° WNW 03:42:15 10° N
Cosmos 1980 Rocket 3.3 03:35:20 10° NW 03:39:48 25° WSW 03:40:33 24° WSW
CZ-2D R/B 3.1 03:35:44 10° NNE 03:40:42 42° E 03:45:19 12° SSE
Cosmos 2360 Rocket 3.1 03:35:28 10° NNW 03:40:56 50° ENE 03:46:24 10° SE
ERS-2 3.5 03:38:59 10° N 03:42:08 26° WNW 03:42:57 24° W
SL-16 R/B 2.8 03:40:17 10° SSE 03:46:30 70° ENE 03:52:45 10° N
USA 215 3.5 03:41:50 10° NE 03:48:16 64° NW 03:53:19 18° WSW
NPP 4.3 03:43:15 10° N 03:48:17 41° WNW 03:51:03 24° WSW
USA 161 2.0 03:54:45 33° WNW 03:54:45 33° WNW 03:56:29 10° NNW
Lacrosse 5 3.2 03:51:01 10° WNW 03:54:01 21° WSW 03:54:01 21° WSW
Cosmos 2219 4.4 03:50:56 10° S 03:56:02 37° ESE 04:01:16 10° NE
Cosmos 2322 4.2 03:50:28 10° NNW 03:56:11 65° ENE 04:01:52 10° SE
Okean 1-7 3.8 03:53:16 10° N 03:57:35 51° E 04:01:49 10° SSE
Meteor 1-4 Rocket 3.7 03:54:38 10° NNW 03:57:55 28° W 03:58:38 26° WSW
Cosmos 1709 Rocket 4.4 03:59:11 21° SW 04:03:11 50° WNW 04:09:16 10° N
CRYOSAT 2 4.4 04:01:20 10° N 04:06:14 82° E 04:10:44 12° S
Cosmos 2112 Rocket 3.9 04:03:13 10° NNW 04:08:24 71° WSW 04:13:34 10° S
Okean O Rocket 3.1 04:05:30 10° NNE 04:09:32 34° E 04:13:32 10° SSE
Cosmos 1455 3.5 04:09:48 10° NW 04:12:51 23° W 04:13:56 20° WSW
ATLAS 5 CENTAUR R/B 1.9 04:13:59 20° SW 04:17:27 79° NW 04:22:44 10° NNE
Cosmos 1346 3.7 04:16:14 25° SW 04:17:33 40° WNW 04:20:29 10° N
H-2A R/B 3.8 04:14:58 16° WSW 04:19:44 46° S 04:51:12 10° ESE
Cosmos 304 Rocket 4.1 04:21:20 10° NNW 04:25:56 45° WSW 04:30:31 10° S
COSMOS 2428 3.4 04:20:54 10° NNW 04:26:31 57° ENE 04:32:05 10° SE
Cosmos 1833 4.3 04:22:23 16° SSW 04:27:08 71° WNW 04:32:53 10° NNE
Cosmos 2221 Rocket 4.0 04:25:59 10° NNW 04:30:16 43° W 04:34:33 10° SSW
CENTAUR R/B 4.4 04:26:30 10° W 04:31:35 23° NNW 04:37:08 10° NNE
Resurs 1-4 Rocket 2.2 04:28:32 10° N 04:33:49 65° WNW 04:39:02 10° SSW
Cosmos 1892 4.1 04:30:48 10° SSE 04:34:25 38° E 04:38:02 10° NNE
GENESIS II 4.3 04:31:35 10° NW 04:35:38 57° WSW 04:39:36 10° SSE
Cosmos 1626 4.2 04:34:40 11° W 04:36:26 15° WNW 04:38:36 10° NW
UNKNOWN OBJECT B 2.7 04:33:10 10° N 04:36:58 69° WNW 04:40:49 10° SSW
Cosmos 1869 Rocket 4.1 04:35:04 13° SSW 04:38:41 43° WNW 04:42:56 10° N
Cosmos 2298 Rocket 4.1 04:35:52 11° SSW 04:41:05 77° WNW 04:46:28 10° NNE
SL-16 R/B 3.5 04:37:24 10° NW 04:41:29 21° W 04:45:34 10° SSW
Cosmos 292 Rocket 4.2 04:39:24 10° NNW 04:44:13 68° ENE 04:48:58 10° SSE
ISS -3.0 04:41:18 10° WNW 04:44:25 42° SW 04:47:31 10° SSE
Cosmos 2237 Rocket 4.5 04:41:23 10° N 04:46:20 30° NE 04:51:16 10° ESE
Cosmos 2237 4.3 04:43:14 10° NNW 04:49:00 88° ENE 04:54:44 10° SSE
CZ-2C R/B 3.6 04:45:08 10° S 04:49:35 71° WSW 04:54:09 10° NNW
SME Rocket 3.8 04:44:07 10° S 04:50:55 64° WSW 04:55:33 10° NNW
Meteor 2-3 Rocket 3.8 04:46:34 10° SSW 04:52:20 78° W 04:58:10 10° N
USA 229 DEB 3.8 04:46:20 10° SSW 04:53:16 89° SE 05:00:20 10° NE
USA 229 3.8 04:46:26 10° SSW 04:53:23 88° SE 05:00:26 10° NE
Cosmos 2322 Rocket 3.8 04:50:36 10° WNW 04:53:34 15° W 04:56:31 10° SW
OAO 3 Rocket 4.1 04:51:31 10° WSW 04:55:34 30° S 04:59:40 10° SE
SL-24 DEB 4.3 04:51:08 10° N 04:55:45 64° W 05:00:19 10° SSW
Cosmos 990 Rocket 4.4 04:52:12 10° S 04:57:18 63° ESE 05:02:24 10° NNE
Cosmos 2341 Rocket 4.2 04:53:14 10° S 04:59:31 80° E 05:05:54 10° N
ATLAS CENTAUR R/B 1.5 04:54:50 10° NW 04:59:33 82° WSW 05:03:51 10° SSE
CZ-2D R/B 3.7 04:56:50 10° N 05:00:55 52° WNW 05:04:51 10° SSW
SL-23 DEB 4.2 04:58:19 10° NW 05:01:35 68° NNE 05:06:20 10° ESE
Cosmos 2219 Rocket 3.1 04:58:01 10° NNW 05:03:33 56° ENE 05:09:01 10° SE
CZ-4B R/B 3.0 05:03:54 10° NNE 05:07:56 87° ESE 05:12:10 10° SSW
PSLV R/B 4.1 05:05:06 10° N 05:08:55 53° WNW 05:12:50 10° SSW
Coronas F rocket 2.7 05:06:49 10° SSE 05:09:24 40° E 05:12:01 10° NNE
IRS-1C Rocket 4.4 05:05:38 10° N 05:10:46 53° WNW 05:15:53 10° SW
ARIANE 5 R/B 4.0 05:07:00 10° NNW 05:10:46 21° WNW 05:14:31 10° WSW
Cosmos 1238 Rocket 4.4 05:05:12 10° N 05:12:01 75° E 05:18:08 10° SSE
Thor Agena Rocket 3.7 05:07:13 10° S 05:12:25 57° WSW 05:17:39 10° NNW
Nadezhda 3 Rocket 4.0 05:06:39 10° NNW 05:12:45 65° W 05:18:47 10° S
